Regional Weather Roundup
Issued by NWS Charleston, SC

Current Version | Previous Version | Text Only | Print | Product List | Glossary On
Versions: 1 2 3 4 5 6 7 8 9 10 11 12 13 14 15 16 17 18 19 20 21 22 23 24 25 26 27 28 29 30 31 32 33 34 35 36 37 38 39 40 41 42 43 44 45 46 47 48 49 50
000 ASUS42 KCHS 251325 RWRCHS REGIONAL WEATHER ROUNDUP NATIONAL WEATHER SERVICE CHARLESTON SC 900 AM EDT FRI JUL 25 2014 NOTE: "FAIR" INDICATES FEW OR NO CLOUDS BELOW 12,000 FEET WITH NO SIGNIFICANT WEATHER AND/OR OBSTRUCTIONS TO VISIBILITY. NOT ALL STATIONS ARE QUALITY CONTROLLED BY THE NATIONAL WEATHER SERVICE. USE DATA WITH CAUTION...ESPECIALLY DEWPOINT OBSERVATIONS. SCZ027-030-031-034>040-042>050-251400- ...SOUTH CAROLINA... CITY SKY/WX TMP DP RH WIND PRES REMARKS N CHARLESTON MOSUNNY 83 73 72 W9 30.02R WATERFRONT PRK N/A 81 N/A N/A SW8 N/A FORT JOHNSON NOT AVBL MOUNT PLEASANT FAIR 82 75 78 W7 30.02R HAZE JOHNS ISLAND MOSUNNY 84 70 61 W8 30.03R PINOPOLIS N/A 82 73 74 SW7 29.94R MONCKS CORNER N/A 82 77 83 CALM 30.01S HX 91 SUMMERVILLE FAIR 81 75 83 SW3 30.03S BEAUFORT MCAS MOSUNNY 82 73 74 NW14 30.02R BEAUFORT ARPT FAIR 82 75 78 W12 30.02S HILTON HEAD IS NOT AVBL GEORGETOWN NOT AVBL WALTERBORO MOSUNNY 82 77 83 W7 30.03S HX 91 ORANGEBURG SUNNY 81 72 74 W5 30.02R BARNWELL FAIR 82 73 74 SW6 30.03R AIKEN FAIR 79 77 94 CALM 30.06R MANNING FAIR 81 81 100 CALM 30.01S HX 91 KINGSTREE NOT AVBL COLUMBIA CLOUDY 80 70 71 NE5 30.02R SUMTER CLOUDY 73 73 97 N8 30.02R FLORENCE CLOUDY 72 70 93 N7 30.03R FOG MYRTLE BEACH MOSUNNY 79 73 83 VRB7 30.00R N MYRTLE BEACH CLOUDY 78 74 87 N6 30.01R $$ GAZ063-065-086>088-099>101-113>116-118-119-134-136>141-150-251400- ...GEORGIA... CITY SKY/WX TMP DP RH WIND PRES REMARKS SAVANNAH ARPT MOSUNNY 82 73 74 W9 30.04R HUNTER AAF SUNNY 82 74 78 W9 30.02R FORT STEWART SUNNY 81 73 76 SW8 30.04R STATESBORO NOT AVBL SYLVANIA SUNNY 82 78 88 W3 30.04S HX 90 CLAXTON FAIR 82 79 89 W9 30.04S HX 93 THOMSON MOSUNNY 80 78 93 CALM 30.08R AUGUSTA-BUSH SUNNY 80 72 76 W5 30.01R AUGUSTA-DANIEL SUNNY 80 72 76 NW7 30.03R SWAINSBORO FAIR 81 81 100 W6 30.05R HX 91 VIDALIA N/A 81 75 83 SW8 30.05S ALMA SUNNY 80 74 81 W9 30.06R WAYCROSS MOSUNNY 84 80 86 W7 30.07R HX 97 JESUP NOT AVBL BRUNSWICK SUNNY 84 72 65 CALM 30.07R SAINT SIMONS SUNNY 81 74 79 W10 30.06R $$ SCZ027-028-034-036>038-045-046-048>050-GAZ119-141-251400- ...LAKE AND SUPPLEMENTAL COASTAL OBSERVATIONS... STATION/POSITION TIME TEMP WIND PRES WAVE SWELL AIR SEA DIR/SP/G HT/PER HT/PER/DIR (UTC) (F) (DEG/KT/KT) (MB) (FT/S) (FT/S/D) UPR LAKE MARION NOT AVBL WINYAH BAY 1300 81 180/ 5 1016.0R LAKE MURRAY 1200 73 50/ 2/ 5 1016.3R ACE BASIN NERRS 1300 81 260/ 3 1017.0R FORT PULASKI 1300 81 250/ 7/ 10 1017.3R SAPELO ISLAND 1300 82 250/ 10 1018.0S $$ ANZ835-935-AMZ111-154-330-350-352-354-374-450-454-472-251400- ...C-MAN AND BUOY OBSERVATIONS... STATION/POSITION TIME TEMP WIND PRES WAVE SWELL AIR SEA DIR/SP/G HT/PER HT/PER/DIR (UTC) (F) (DEG/KT/KT) (MB) (FT/S) (FT/S/D) FOLLY BEACH CMAN 1300 82 260/ 5/ 7 1017.0R BUOY 41004 1300 82 82 250/ 12/ 14 1015.4R 4/ 6 3/ 6 BUOY 41008 1300 81 84 280/ 16/ 17 1017.1R 3/ 5 5E ST. MARYS GA 1300 85 N/A 2/ 4 FRYING PAN BUOY NOT AVBL BUOY 41025 1300 VRB 12/ 16 1016.0R 3/ 7 2/160/ 7 CAPE LOOKOUT NC 1300 73 10/ 9/ 11 1016.5S BUOY 41002 1155 82 82 240/ 17/ 19 1018.2R 5/ 6 BUOY 41010 1300 83 83 220/ 12/ 12 1018.8R 3/ 7 2/140/ 7 BUOY 41012 NOT AVBL ST AUGUSTINE FL 1300 84 230/ 3/ 4 1019.0F CAPERS NEARSHORE 1200 81 280/ 8/ 10 N/A FRIPP NEARSHORE NOT AVBL $$

USA.gov is the U.S. government's official web portal to all federal, state and local government web resources and services.